Camdenton, MO

10:06 PM CDT on April 23, 2017 (GMT -0500)
Camdenton

Weather History for KH21 - February, 2014

Change the Weather History Date:

Tuesday, February 4, 2014

  Actual Average (KAIZ) Record (KAIZ)
Temperature  
Mean Temperature 24 °F -  
Max Temperature 28 °F 42 °F 77 °F (2008)
Min Temperature 21 °F 24 °F -2 °F (2011)
Degree Days  
Heating Degree Days 40    
Moisture  
Dew Point 23 °F    
Average Humidity 85    
Maximum Humidity 100    
Minimum Humidity 69    
Precipitation  
Precipitation 0.02 in - - ()
Sea Level Pressure  
Sea Level Pressure 30.07 in    
Wind  
Wind Speed 7 mph (NE)    
Max Wind Speed 13 mph    
Max Gust Speed 20 mph    
Visibility 6 miles    
Events Snow    
Averages and records for this station are not official NWS values.
T = Trace of Precipitation, MM = Missing Value Source: NWS Daily Summary

Daily Weather History Graph

Daily Weather History Graph

Search for Another Location

Airport or City:

Trip Planner

Search our weather history database for the weather conditions in past years. The results will help you decide how hot, cold, wet, or windy it might be!

Date:

Astronomy

Feb. 04, 2014 Rise Set
Actual Time 7:12 AM CST 5:37 PM CST
Civil Twilight 6:44 AM CST 6:05 PM CST
Nautical Twilight 6:13 AM CST 6:36 PM CST
Astronomical Twilight 5:42 AM CST 7:07 PM CST
Moon 9:56 AM CST (2/4) 11:25 PM CST (2/4)
Length of Visible Light 11h 20m
Length of Day
10h 25m
Waxing Crescent, 29% of the Moon is Illuminated
Feb 4
Waxing Crescent
Feb 6
First Quarter
Feb 14
Full
Feb 22
Last Quarter
Mar 1
New

Hourly Weather History & Observations

Time (CST) Temp. Windchill Dew Point Humidity Pressure Visibility Wind Dir Wind Speed Gust Speed Precip Events Conditions
12:15 AM 26.6 °F 21.2 °F 19.4 °F 74% 30.21 in 10.0 mi East 4.6 mph - N/A   Mostly Cloudy
12:35 AM 26.6 °F 20.0 °F 19.4 °F 74% 30.20 in 10.0 mi ENE 5.8 mph - N/A   Overcast
12:55 AM 26.6 °F 21.2 °F 19.4 °F 74% 30.20 in 10.0 mi ENE 4.6 mph - N/A   Overcast
1:15 AM 26.6 °F 22.6 °F 19.4 °F 74% 30.21 in 10.0 mi ENE 3.5 mph - N/A   Overcast
1:35 AM 26.6 °F 22.6 °F 19.4 °F 74% 30.22 in 10.0 mi East 3.5 mph - N/A   Overcast
1:55 AM 28.4 °F 23.3 °F 21.2 °F 74% 30.20 in 10.0 mi ENE 4.6 mph - N/A   Overcast
2:15 AM 28.4 °F 22.2 °F 21.2 °F 74% 30.20 in 10.0 mi ENE 5.8 mph - N/A   Overcast
2:35 AM 28.4 °F 20.4 °F 21.2 °F 74% 30.21 in 10.0 mi East 8.1 mph - N/A   Overcast
2:55 AM 28.4 °F 19.7 °F 21.2 °F 74% 30.21 in 10.0 mi East 9.2 mph - N/A   Overcast
3:15 AM 28.4 °F 21.2 °F 21.2 °F 74% 30.19 in 10.0 mi East 6.9 mph - N/A   Overcast
3:35 AM 28.4 °F 21.2 °F 21.2 °F 74% 30.19 in 10.0 mi East 6.9 mph - N/A   Overcast
3:55 AM 28.4 °F 22.2 °F 21.2 °F 74% 30.17 in 10.0 mi ENE 5.8 mph - N/A   Overcast
4:15 AM 28.4 °F 22.2 °F 19.4 °F 69% 30.16 in 10.0 mi NE 5.8 mph - N/A   Overcast
4:35 AM 28.4 °F 21.2 °F 19.4 °F 69% 30.17 in 10.0 mi NE 6.9 mph - N/A   Overcast
4:55 AM 28.4 °F - 19.4 °F 69% 30.18 in 10.0 mi Calm Calm - N/A   Overcast
5:15 AM 28.4 °F - 19.4 °F 69% 30.21 in 10.0 mi Calm Calm - N/A   Overcast
5:35 AM 26.6 °F - 19.4 °F 74% 30.21 in 10.0 mi Calm Calm - N/A   Overcast
5:55 AM 26.6 °F - 19.4 °F 74% 30.22 in 10.0 mi Calm Calm - N/A   Overcast
6:15 AM 26.6 °F 21.2 °F 19.4 °F 74% 30.22 in 10.0 mi North 4.6 mph - N/A   Overcast
6:35 AM 26.6 °F 20.0 °F 21.2 °F 80% 30.22 in 10.0 mi NNE 5.8 mph - N/A   Overcast
6:55 AM 26.6 °F 18.2 °F 21.2 °F 80% 30.19 in 10.0 mi NNE 8.1 mph - N/A   Overcast
7:15 AM 26.6 °F 17.5 °F 21.2 °F 80% 30.18 in 10.0 mi NE 9.2 mph - N/A   Overcast
7:35 AM 26.6 °F 16.8 °F 21.2 °F 80% 30.18 in 10.0 mi NE 10.4 mph - N/A   Overcast
7:55 AM 26.6 °F 18.2 °F 21.2 °F 80% 30.17 in 10.0 mi NE 8.1 mph - N/A   Overcast
8:15 AM 26.6 °F 16.8 °F 21.2 °F 80% 30.16 in 10.0 mi ENE 10.4 mph 17.3 mph N/A   Overcast
8:35 AM 26.6 °F 17.5 °F 21.2 °F 80% 30.16 in 10.0 mi ENE 9.2 mph - N/A   Overcast
8:55 AM 26.6 °F 16.2 °F 21.2 °F 80% 30.16 in 10.0 mi ENE 11.5 mph - N/A   Overcast
9:15 AM 26.6 °F 16.8 °F 21.2 °F 80% 30.15 in 10.0 mi ENE 10.4 mph - N/A   Overcast
9:35 AM 26.6 °F 17.5 °F 21.2 °F 80% 30.12 in 10.0 mi ENE 9.2 mph 17.3 mph N/A Snow Light Snow
9:55 AM 26.6 °F 16.2 °F 21.2 °F 80% 30.11 in 10.0 mi NE 11.5 mph 17.3 mph N/A   Overcast
10:15 AM 28.4 °F 19.1 °F 21.2 °F 74% 30.08 in 10.0 mi NE 10.4 mph - N/A   Overcast
10:35 AM 28.4 °F 19.1 °F 21.2 °F 74% 30.10 in 10.0 mi East 10.4 mph 16.1 mph N/A   Overcast
10:55 AM 28.4 °F 19.1 °F 21.2 °F 74% 30.11 in 10.0 mi ENE 10.4 mph 16.1 mph N/A   Overcast
11:15 AM 28.4 °F 20.4 °F 21.2 °F 74% 30.10 in 10.0 mi ENE 8.1 mph - N/A   Overcast
11:35 AM 28.4 °F 20.4 °F 21.2 °F 74% 30.07 in 10.0 mi ENE 8.1 mph - N/A   Overcast
11:55 AM 28.4 °F 18.5 °F 23.0 °F 80% 30.05 in 1.5 mi NE 11.5 mph 17.3 mph N/A Snow Light Snow
12:15 PM 26.6 °F 15.7 °F 24.8 °F 93% 30.04 in 0.5 mi NE 12.7 mph 17.3 mph N/A Snow Snow
12:35 PM 26.6 °F 16.8 °F 26.6 °F 100% 30.02 in 0.5 mi ENE 10.4 mph - N/A Snow Snow
12:55 PM 28.4 °F 21.2 °F 26.6 °F 93% 30.00 in 0.5 mi NE 6.9 mph 16.1 mph N/A Snow Light Snow
1:15 PM 28.4 °F 19.1 °F 26.6 °F 93% 29.97 in 0.5 mi NE 10.4 mph 18.4 mph 0.01 in Snow Light Snow
1:35 PM 28.4 °F 18.5 °F 26.6 °F 93% 29.99 in 1.2 mi NE 11.5 mph 19.6 mph 0.01 in Snow Light Snow
1:55 PM 28.4 °F 18.5 °F 26.6 °F 93% 29.97 in 0.8 mi NE 11.5 mph 17.3 mph 0.01 in Snow Light Snow
2:15 PM 28.4 °F 19.7 °F 26.6 °F 93% 29.95 in 1.0 mi ENE 9.2 mph 17.3 mph N/A Snow Light Snow
2:35 PM 28.4 °F 20.4 °F 26.6 °F 93% 29.96 in 1.0 mi ENE 8.1 mph 18.4 mph N/A Snow Light Snow
2:55 PM 28.4 °F 18.0 °F 26.6 °F 93% 29.93 in 0.8 mi NE 12.7 mph 19.6 mph N/A Snow Light Snow
3:15 PM 28.4 °F 19.1 °F 26.6 °F 93% 29.92 in 2.0 mi NE 10.4 mph 17.3 mph N/A Snow Light Snow
3:35 PM 28.4 °F 21.2 °F 26.6 °F 93% 29.94 in 2.0 mi NE 6.9 mph - N/A Snow Light Snow
3:55 PM 28.4 °F 20.4 °F 26.6 °F 93% 29.94 in 2.5 mi NE 8.1 mph - N/A Snow Light Snow
4:15 PM 26.6 °F 17.5 °F 26.6 °F 100% 29.94 in 1.5 mi NNE 9.2 mph - N/A Snow Light Snow
4:35 PM 26.6 °F 18.2 °F 26.6 °F 100% 29.92 in 1.2 mi NNE 8.1 mph 16.1 mph N/A Snow Light Snow
4:55 PM 26.6 °F 18.2 °F 26.6 °F 100% 29.92 in 1.0 mi NE 8.1 mph - N/A Snow Light Snow
5:15 PM 26.6 °F 19.1 °F 24.8 °F 93% 29.91 in 1.2 mi NE 6.9 mph - N/A Snow Light Snow
5:35 PM 26.6 °F 21.2 °F 24.8 °F 93% 29.92 in 1.8 mi NE 4.6 mph - N/A Snow Light Snow
6:15 PM 26.6 °F - 26.6 °F 100% 29.94 in 2.5 mi Calm Calm - N/A   Overcast
6:35 PM 26.6 °F 20.0 °F 26.6 °F 100% 29.95 in 2.0 mi NE 5.8 mph - N/A   Overcast
6:55 PM 26.6 °F 20.0 °F 26.6 °F 100% 29.95 in 2.5 mi NE 5.8 mph - N/A   Overcast
7:15 PM 26.6 °F 21.2 °F 26.6 °F 100% 29.95 in 3.0 mi NNE 4.6 mph - N/A   Overcast
7:35 PM 26.6 °F 20.0 °F 26.6 °F 100% 29.95 in 2.5 mi NNE 5.8 mph - N/A   Overcast
7:55 PM 26.6 °F 20.0 °F 24.8 °F 93% 29.95 in 3.0 mi North 5.8 mph - N/A   Overcast
8:15 PM 26.6 °F 22.6 °F 24.8 °F 93% 29.95 in 3.0 mi North 3.5 mph - N/A   Overcast
8:35 PM 26.6 °F 19.1 °F 24.8 °F 93% 29.97 in 3.0 mi North 6.9 mph - 0.01 in Snow Light Snow
8:55 PM 24.8 °F 20.5 °F 24.8 °F 100% 29.96 in 3.0 mi North 3.5 mph - 0.01 in Snow Light Snow
9:15 PM 24.8 °F 16.9 °F 23.0 °F 93% 29.96 in 1.8 mi North 6.9 mph - N/A Snow Light Snow
9:35 PM 24.8 °F 16.9 °F 23.0 °F 93% 29.97 in 1.5 mi North 6.9 mph - N/A Snow Light Snow
9:55 PM 23.0 °F 12.4 °F 23.0 °F 100% 29.97 in 2.5 mi NNW 10.4 mph - N/A Snow Light Snow
10:15 PM 23.0 °F 13.1 °F 21.2 °F 93% 29.98 in 5.0 mi NNW 9.2 mph - N/A Snow Light Snow
10:35 PM 23.0 °F 11.7 °F 21.2 °F 93% 29.98 in 7.0 mi NNW 11.5 mph - N/A   Overcast
10:55 PM 21.2 °F 11.7 °F 19.4 °F 93% 29.98 in 10.0 mi North 8.1 mph - N/A   Overcast
11:15 PM 21.2 °F 11.7 °F 19.4 °F 93% 29.98 in 10.0 mi North 8.1 mph 16.1 mph N/A   Overcast
11:35 PM 21.2 °F 10.1 °F 19.4 °F 93% 30.00 in 7.0 mi North 10.4 mph - N/A   Overcast
11:55 PM 21.2 °F 11.7 °F 19.4 °F 93% 30.01 in 10.0 mi NNW 8.1 mph - N/A   Overcast